"Pseudo-MPEC" for 2018-103B = NORAD 43846 = Chang'e 4 booster

Created 2018 Dec 17 3:24:21 UT using Find_Orb

Click here for an explanation of pseudo-MPECs

TLEs are available for this object. (Currently running to February 2019, but they're probably of only ballpark accuracy by that point... see remarks below about unhandled non-gravitational effects, and we don't really have a lot of data here. But we'll probably get more before then.) Space-Track also provides TLEs, but they involve the objects being in low-earth orbit and are essentially works of fiction.

You can click here to generate ephemerides for a particular place and time span. Enter the "object name" as "Old A10azqL" (the name under which the object was first found) and set the rest of the ephemeris quantities as you wish.

This orbit does assume no non-gravitational effects, such as leftover fuel venting. I've been told that doesn't happen much these days, because people have realized you want to get rid of leftover fuel quickly, rather than risk having your booster blow up and leave orbiting shrapnel. Still... old cans do sometimes move oddly, and new ones such as this even more so. I don't think we'll lose this object, but the ephemeris uncertainties shown below may prove to be understated. (And, of course, we haven't actually measured the effects of solar radiation pressure quite yet.)

My initial orbit for this object was based on the first four observations, plus the knowledge that it had been near a perigee of about 200 km at a particular time. In hindsight, that gave a perilune that was off by about two hours and a prograde pass; the actual lunar flyby was retrograde. As a result, the object is in a lower orbit than I thought (period of about 16 days, not 37.)

The current orbit looks to be reasonably stable over the next few months. I don't expect it to hit the earth or moon or be ejected from the Earth-Moon system during that time.

 
 Astrometry: 
     A10azqL  C2018 12 09@ICQy+vI*uU]);0nh\Nj_KeH.x9gr=1#pyAstrometryrs]nO`+XT05
     A10azqL  C2018 12 09hlLnWN/hD[+U_!%^NyBBredacted;N\'`7w34*hvop-CM1qwp\L+T05
     A10azqL  C2018 12 09y#clickMjU:$_][5RQBuX^a)51cL]IG]-dYt=7!-F;e_xFt*RdTAT05
     A10azqL  C2018 12 09MhZ-bwxc^DXJ)1p#;sug'[$Ilt_Mj2;KsWHqta;R1x=[U38N.%/%T05
     A10aHKA  C2018 12 153,yNWM_ZDYA:f,herel)AHYv%^`*RN29jyLvxUTK:hJtc`o0CjX`T08
     A10aHKA  C2018 12 15;w5Tg4Z=f5K8P9J40KDSpWmt@f\foriiQf$_-8@$%UPq+ig/F!sKT08
     A10aHKA  C2018 12 15v;,?*]_cwlU=q4L!+2DLAj';p'Bk7p;heG-p^m3[9hRd#%ebk0ifT08
     A10aHKA  C2018 12 15p5N1Wm2d=p1PRK?*ivcU^T?MAsxxuZHexplanationdb3AUE`s;qT08
2018-103B     CK181217:02295858 227.70806   +27.89912            15.1 GV     J95
2018-103B     CK181217:02470636 228.77451   +27.73545            14.3 GV     J95
2018-103B     CK181217:02501379 228.96439   +27.70528            14.8 GV     J95
2018-103B     CK181217:02562616 229.33760   +27.64495            14.0 GV     J95

Station data:
(J95) Great Shefford  (N51.474969 W1.447003)  UK.  Observer P. Birtwhistle.
(T05) ATLAS-HKO, Haleakala  (N20.707582 W156.257008)  US/Hawaii.  Observers
   L. Denneau, A. Heinze, H. Weiland, J. Tonry, H. Flewelling, A.
   Fitzsimmons, D. Young. Measurers L. Denneau, A. Heinze, J. Tonry. 0.5-m
   f/2.0 Schmidt + CCD.
(T08) ATLAS-MLO, Mauna Loa  (N19.535772 W155.576400)  US/Hawaii.

Orbital elements (near launch):  2018-103B = NORAD 43846 = Chang'e 4 booster
   Perigee 2018 Dec 7.777670 +/- 4.63e-5 TT = 18:39:50 (JD 2458460.277670)
Epoch 2018 Dec  7.8 TT = JDT 2458460.3                        Gray
M   0.695783308 +/- 0.0014          (J2000 equator)
n  31.159821357 +/- 0.000411        Peri.  146.358925 +/- 0.0014
a215877.2448 +/- 1.9                Node   354.247304 +/- 0.0016
e   0.96911543 +/- 6.3e-7           Incl.   28.475953 +/- 0.00052
P  11.55d                  H 25.5   G  0.15   U  7.5
q 6667.274145 +/- 0.0897    Q 425087.2155 +/- 3.85
From 12 observations 2018 Dec. 9-17; mean residual 0".341

Orbital elements (lunar flyby):  2018-103B = NORAD 43846 = Chang'e 4 booster
   Perilune 2018 Dec 12.411109 +/- 1.25e-5 TT =  9:51:59 (JD 2458464.911109)
Epoch 2018 Dec 12.4 TT = JDT 2458464.9                        Gray
q  7996.894294 +/- 0.181            (J2000 ecliptic)
H   25.5  G 0.15                    Peri.  104.122563 +/- 0.00037
                                    Node    47.037481 +/- 0.0007
e   2.01955854 +/- 1.8e-5           Incl.  153.987854 +/- 0.00041
From 12 observations 2018 Dec. 9-17; mean residual 0".341

Orbital elements (after lunar flyby):  2018-103B = NORAD 43846 = Chang'e 4 booster
   Perigee 2018 Dec 16.599558 +/- 3.56e-6 TT = 14:23:21 (JD 2458469.099558)
Epoch 2018 Dec 17.0 TT = JDT 2458469.5                        Gray
M   8.827277177 +/- 0.00007         (J2000 equator)
n  22.043845299 +/- 6.49e-5         Peri.   15.998030 +/- 0.00008
a271901.7084 +/- 0.533              Node   107.606026 +/- 0.00012
e   0.80105976 +/- 6.29e-7          Incl.   33.611990 +/- 0.000034
P  16.33d                  H 25.5   G  0.15   U  6.3
q 54092.18911 +/- 0.167    Q 489711.2278 +/- 1.03
From 12 observations 2018 Dec. 9-17; mean residual 0".341
Residuals in arcseconds: 
181209 T05 .031+ .100+    181215 T08 .190+ .030+    181217 J95 .766+ .184-
181209 T05 .181+ .690-    181215 T08 .152+ .069-    181217 J95 .771- .071+
181209 T05 .172- .348+    181215 T08 .263- .161+    181217 J95 .576- .144+
181209 T05 .037- .247+    181215 T08 .133- .109-    181217 J95 .536+ .108-

Ephemerides (geocentric):
Date (UTC)   RA              Dec         delta  elong  mag " sig PA
---- -- --  -------------   -----------  ------ -----  --- ---- ---
2018 12 17  14 16 20.1     +32 30 59      94558  73.6 13.4 .138  88
2018 12 18  17 25 25.1     +16 22 16     216568  39.9 18?? .315  75
2018 12 19  18 16 24.6     +08 46 05     303609  33.0 19?? .342  69
2018 12 20  18 45 25.4     +04 00 59     368284  30.5 20?? .343  62
2018 12 21  19 06 15.8     +00 28 24     416795  29.6 21?? .340  55
2018 12 22  19 23 06.7     -02 26 45     452328  29.2 21?? .336  48
2018 12 23  19 37 47.8     -05 00 54     476695  29.2 21?? .332  41
2018 12 24  19 51 19.7     -07 23 18     490947  29.5 21?? .332  33
2018 12 25  20 04 23.6     -09 40 04     495636  30.0 21?? .338  24
2018 12 26  20 17 34.0     -11 56 00     490926  30.8 21?? .353  13
2018 12 27  20 31 26.6     -14 15 41     476626  32.0 21?? .384   1
2018 12 28  20 46 47.6     -16 44 23     452156  33.7 20?? .444 168
2018 12 29  21 04 49.0     -19 29 22     416424  36.1 20?? .556 154
2018 12 30  21 27 47.1     -22 42 28     367561  39.7 19?? .771 141
2018 12 31  22 01 05.5     -26 45 54     302264  45.6 18?? 1.24 128
2019 01 01  23 03 08.4     -32 23 49     214047  57.4 16?? 2.65 113
2019 01 02  02 55 12.2     -34 00 44      89405 100.6 12.1 15.6  74
2019 01 03  15 58 16.2     +29 16 56     127273  66.9 14.5 7.12 115
2019 01 04  17 52 06.5     +14 17 47     240699  40.3 18?? 1.86 134
2019 01 05  18 32 40.8     +07 05 58     322003  30.6 20?? 1.04 146
2019 01 06  18 57 33.0     +02 16 40     382779  24.9 22?? .785 155
2019 01 07  19 16 13.4     -01 33 36     428156  21.0 23?? .701 161
2019 01 08  19 32 03.6     -04 54 23     460714  18.0 24?? .689 164
2019 01 09  19 46 34.4     -07 56 59     482069  15.8 25?? .713 164
2019 01 10  20 00 32.0     -10 48 03     493306  14.4 26?? .763 162
2019 01 11  20 14 29.0     -13 33 19     495017  14.0 26?? .839 159
2019 01 12  20 28 57.1     -16 18 02     487383  14.6 26?? .946 154
2019 01 13  20 44 34.9     -19 07 38     470220  16.2 25?? 1.10 149
2019 01 14  21 02 18.3     -22 08 29     442956  19.0 24?? 1.33 144
2019 01 15  21 23 43.0     -25 29 19     404518  23.1 22?? 1.69 137
2019 01 16  21 52 02.8     -29 23 31     353052  28.9 20?? 2.31 129
2019 01 17  22 35 31.1     -34 12 25     285304  38.1 19?? 3.63 120
2019 01 18  00 04 26.1     -40 00 53     195167  55.5 16?? 7.75 103
2019 01 19  05 22 48.2     -22 04 17      78583 122.4 11.1 45.2  54
2019 01 20  15 59 52.2     +33 14 40     139708  79.4 14.0 12.5 117
2019 01 21  17 51 55.9     +16 53 06     244420  50.2 17?? 3.61 134
2019 01 22  18 33 50.5     +08 26 03     322451  37.6 19?? 1.93 144
2019 01 23  18 59 51.3     +02 48 30     381976  29.6 21?? 1.36 151
2019 01 24  19 19 28.3     -01 29 53     427450  23.7 22?? 1.12 156
2019 01 25  19 35 55.5     -05 04 45     461357  18.8 24?? 1.02 159
2019 01 26  19 50 43.2     -08 13 42     485167  14.5 26?? .990 159
2019 01 27  20 04 43.5     -11 06 52     499751  10.6 29?? 1.00 158
2019 01 28  20 18 33.0     -13 51 01     505582   6.8 34?? 1.05 156
2019 01 29  20 32 43.1     -16 31 15     502826   3.1 48?? 1.13 152
2019 01 30  20 47 47.3     -19 12 09     491376   1.3 72?? 1.26 147
2019 01 31  21 04 28.3     -21 58 26     470839   5.3 38?? 1.45 142
2019 02 01  21 23 50.3     -24 55 45     440471  10.0 29?? 1.74 137
2019 02 02  21 47 45.6     -28 11 43     399040  15.6 25?? 2.20 130
2019 02 03  22 20 06.7     -31 56 55     344545  22.9 22?? 3.02 122
2019 02 04  23 11 05.5     -36 22 17     273598  33.7 19?? 4.83 112
2019 02 05  00 59 18.6     -40 24 40     179990  54.5 16?? 10.8  92
2019 02 06  07 06 06.3     -01 16 04      70552 143.6 10.3 63.6  49
2019 02 07  16 30 11.1     +28 58 06     154806  82.9 14.0 10.6 122
2019 02 08  18 05 00.9     +13 48 56     254654  57.2 16?? 3.14 138
2019 02 09  18 44 50.5     +05 45 43     329702  45.5 18?? 1.59 150
2019 02 10  19 10 28.2     +00 19 15     386943  38.1 19?? 1.07 162
2019 02 11  19 30 06.7     -03 52 23     430331  32.8 20?? .871 170
2019 02 12  19 46 43.0     -07 22 38     462152  28.6 21?? .792 173
2019 02 13  20 01 42.5     -10 28 24     483797  25.2 22?? .771 173
2019 02 14  20 15 56.4     -13 19 33     496117  22.4 23?? .786 170
2019 02 15  20 30 02.1     -16 02 46     499584  20.1 24?? .834 164
2019 02 16  20 44 33.7     -18 43 07     494367  18.2 24?? .920 158
2019 02 17  21 00 09.4     -21 25 10     480348  16.9 25?? 1.06 151
2019 02 18  21 17 40.5     -24 13 35     457094  16.5 25?? 1.26 143
